Location: Mat�lon
(46.2791°N, 7.1028°E)
Time: 01:39:14
(UTC+00:00)

Okean 2 Rocket - Pass Details

Date: 18 September 2020
Orbit: 616 x 642 km, 82.5° (Epoch: 29 October)

Event Time Altitude Azimuth Distance (km) Brightness Sun altitude
Rises 19:40:21 0° 205° (SSW) 2,933 6.5 -21.4°
Reaches altitude 10° 19:42:41 10° 212° (SSW) 2,027 5.7 -21.8°
Maximum altitude 19:46:58 43° 284° (WNW) 901 4.3 -22.4°
Drops below altitude 10° 19:51:16 10° 356° (N) 2,030 6.1 -23.1°
Sets 19:53:36 0° 4° (N) 2,938 6.9 -23.4°
